[[{"header":{"parameterUnit":"m.s-1","parameterCategory":1,"la1":30.2991,"la2":30.254,"lo1":-89.0895,"lo2":-89.0444,"dy":0.0017,"dx":0.0017,"nx":28,"ny":28,"refTime":"2025-07-23T21:00:00:Z","depth":0,"parameterNumber":2,"parameterNumberName":"U-component_of_WINDS"},"data":[0,0,0,0,0,0,0,0,0,0,0,0,0,0,0,0,0,0,0,0,0,0,0,0,0,0,0,0,0,0,0,0,0,0,0,0,0,0,0,0,0,0,0,0,0,0,0,0,0,0,0,0,0,0,0,0,0,0,1.3964,1.3961,0,1.3718,1.3715,1.3712,1.3459,1.3455,1.3452,1.3448,1.3196,1.3192,1.3189,0,0,0,0,0,0,0,0,0,0,0,0,0,1.4214,1.4211,1.3964,1.3961,1.3958,1.3718,1.3715,1.3711,1.3459,1.3455,1.3451,1.3447,1.3197,1.3193,1.3189,0,0,0,0,0,0,0,0,0,0,0,0,0,1.4051,1.421,1.3965,1.3803,1.3786,1.3719,1.3715,1.3711,1.346,1.3455,1.345,1.3445,1.3198,1.3193,1.3188,1.326,0,0,1.3172,1.317,0,0,0,0,0,0,0,0,1.4061,1.4042,1.383,1.3814,1.3795,1.3614,1.371,1.356,1.3461,1.3584,1.3448,1.3442,1.3339,1.3322,1.3287,1.3248,1.3237,1.3172,1.3168,1.3166,1.3165,0,0,0,0,0,0,0,1.4072,1.4051,1.3867,1.3827,1.3806,1.3743,1.3714,1.368,1.3494,1.3573,1.3554,1.3528,1.3328,1.3293,1.3279,1.3233,1.3172,1.3167,1.3164,1.3162,1.324,1.3245,0,0,0,0,0,0,1.4108,1.4062,1.3874,1.3859,1.3918,1.3742,1.371,1.3677,1.3493,1.346,1.3533,1.3517,1.3304,1.3286,1.327,1.3342,1.3166,1.3161,1.3158,1.3235,1.3241,1.3247,0,0,0,0,0,0,1.4115,1.4094,1.3884,1.3955,1.3924,1.3744,1.3709,1.3675,1.3639,1.3463,1.3428,1.3531,1.3299,1.3277,1.3264,1.333,1.3159,1.3154,1.3229,1.3237,1.3244,1.3488,0,0,0,0,0,0,1.4123,1.4098,1.4124,1.3958,1.3921,1.3885,1.3713,1.3674,1.3631,1.3608,1.3452,1.3421,1.3294,1.3273,1.3259,1.3319,1.315,1.3222,1.3232,1.3241,1.3474,1.3503,1.3529,0,0,0,0,0,1.4133,1.4202,1.4127,1.4105,1.395,1.3889,1.3868,1.372,1.3637,1.3662,1.3548,1.3426,1.3324,1.3274,1.3256,1.3316,1.3217,1.3229,1.3241,1.3461,1.3498,1.3528,0,0,0,0,0,0,1.4381,1.4178,1.4091,1.411,1.4019,1.3846,1.3873,1.3763,1.3693,1.3675,1.3493,1.346,1.3469,1.339,1.3338,1.3375,1.3253,1.3262,1.3427,1.346,1.3488,1.3508,1.3146,0,0,0,0,0,1.4438,1.4406,1.4229,1.4262,1.4221,1.4056,1.4023,1.3917,1.3815,1.3775,1.3661,1.3567,1.3512,1.3481,1.3422,1.3459,1.3422,1.3491,1.3519,1.3543,1.3553,1.3567,1.3596,1.3285,1.3285,1.3285,0,0,1.4555,1.444,1.4431,1.4309,1.4226,1.4197,1.4025,1.4001,1.3977,1.3771,1.3753,1.3666,1.3548,1.3561,1.3561,1.3496,1.363,1.3558,1.3578,1.3575,1.3582,1.3612,1.3638,1.3293,1.3292,1.3291,0,0,1.4754,1.4664,1.4681,1.4601,1.4478,1.4367,1.4372,1.4215,1.415,1.4128,1.3973,1.3941,1.3852,1.3775,1.3724,1.3893,1.3778,1.3878,1.4024,1.404,1.4064,1.4085,1.4147,1.4171,1.3888,1.3889,1.3889,0,1.4916,1.4866,1.4705,1.469,1.4641,1.4453,1.4469,1.4399,1.4263,1.4234,1.4162,1.4046,1.3953,1.3946,1.3987,1.3951,1.3951,1.3897,1.4074,1.4093,1.411,1.4167,1.419,1.3902,1.3901,1.3899,1.3898,0,1.5071,1.5039,1.5068,1.4942,1.4895,1.4897,1.4735,1.4707,1.4604,1.4501,1.4481,1.4363,1.4277,1.4266,1.4165,1.4244,1.4208,1.4108,1.3982,1.4156,1.4206,1.4226,1.3921,1.3916,1.3912,1.3909,0,0,1.5423,1.5206,1.522,1.516,1.5009,1.498,1.4972,1.4888,1.4869,1.478,1.4769,1.4697,1.4603,1.4546,1.4434,1.4448,1.459,1.4344,1.4339,1.4396,1.4671,1.475,1.4778,1.4511,1.4515,1.4517,1.4681,0,1.5598,1.5574,1.5428,1.5446,1.5414,1.5234,1.5226,1.5133,1.5036,1.4994,1.4884,1.4838,1.4716,1.4681,1.4686,1.4572,1.4643,1.4557,1.4501,1.4501,1.4539,1.4803,1.4886,1.5047,1.47,1.4703,1.4705,0,1.58,1.5725,1.5741,1.5589,1.557,1.5567,1.5477,1.5439,1.5328,1.5256,1.5192,1.5066,1.5046,1.4927,1.4898,1.4843,1.481,1.4751,1.4753,1.4745,1.4616,1.4805,1.5095,1.5121,1.4734,1.4732,1.473,0,1.6059,1.596,1.5956,1.5911,1.5733,1.5735,1.5661,1.5545,1.5504,1.5424,1.5396,1.5316,1.5273,1.5213,1.5068,1.4995,1.5057,1.4925,1.4997,1.5001,1.5021,1.5022,1.5313,1.4996,1.4996,1.4995,1.4995,0,1.6271,1.6289,1.607,1.6069,1.6083,1.5913,1.5931,1.5839,1.5737,1.5714,1.5551,1.5533,1.5341,1.5301,1.5186,1.5181,1.5162,1.5103,1.5073,1.512,1.5128,1.5098,1.5084,1.5001,1.5,1.4999,1.4998,0,1.6564,1.6418,1.6403,1.6235,1.6193,1.6212,1.6067,1.6059,1.595,1.5923,1.5907,1.5737,1.5681,1.5529,1.5434,1.5356,1.5384,1.5326,1.5422,1.5404,1.5485,1.5481,1.577,1.5799,1.5463,1.5466,1.5469,0,1.6711,1.672,1.6553,1.6527,1.646,1.6418,1.6375,1.6207,1.6169,1.6042,1.6049,1.598,1.5916,1.5834,1.5702,1.5628,1.5569,1.5674,1.5557,1.5603,1.5573,1.5576,1.5576,1.5702,1.5707,1.571,1.5713,0,1.6988,1.6915,1.6859,1.6779,1.6732,1.666,1.6579,1.6566,1.6377,1.6342,1.6283,1.6234,1.6135,1.6069,1.5974,1.5896,1.5775,1.5751,1.5764,1.5813,1.587,1.5843,1.5496,1.5746,1.5743,1.574,1.5739,1.5737,1.7213,1.7213,1.7096,1.7039,1.696,1.6888,1.6872,1.6761,1.6709,1.6618,1.652,1.6472,1.6359,1.6219,1.6149,1.6108,1.6044,1.6063,1.6068,1.6076,1.6098,1.5874,1.609,1.6088,1.6087,1.6086,1.6085,0,1.7484,1.7399,1.7349,1.724,1.7196,1.7083,1.6987,1.6958,1.6918,1.6822,1.6763,1.6695,1.6629,1.6491,1.6412,1.6406,1.6348,1.6391,1.6392,1.6376,1.6159,1.6157,1.644,1.6439,1.6439,1.6439,1.6439,1.6439,1.762,1.7615,1.7528,1.7481,1.7395,1.7347,1.7302,1.7234,1.7158,1.709,1.7034,1.6944,1.6831,1.6743,1.6678,1.6638,1.6618,1.668,1.6624,1.6424,1.6391,1.6359,1.6356,1.6676,1.6677,1.6844,1.6845,1.6847]},{"header":{"parameterUnit":"m.s-1","parameterCategory":1,"la1":30.2991,"la2":30.254,"lo1":-89.0895,"lo2":-89.0444,"dy":0.0017,"dx":0.0017,"nx":28,"ny":28,"refTime":"2025-07-23T21:00:00:Z","depth":0,"parameterNumber":3,"parameterNumberName":"V-component_of_WINDS"},"data":[0,0,0,0,0,0,0,0,0,0,0,0,0,0,0,0,0,0,0,0,0,0,0,0,0,0,0,0,0,0,0,0,0,0,0,0,0,0,0,0,0,0,0,0,0,0,0,0,0,0,0,0,0,0,0,0,0,0,-1.1668,-1.167,0,-1.1783,-1.1784,-1.1786,-1.1836,-1.1836,-1.1836,-1.1836,-1.195,-1.1953,-1.1956,0,0,0,0,0,0,0,0,0,0,0,0,0,-1.149,-1.1493,-1.1668,-1.167,-1.1671,-1.1783,-1.1785,-1.1786,-1.1836,-1.1836,-1.1836,-1.1835,-1.1949,-1.1953,-1.1957,0,0,0,0,0,0,0,0,0,0,0,0,0,-1.1582,-1.1494,-1.1668,-1.171,-1.1715,-1.1783,-1.1785,-1.1787,-1.1836,-1.1836,-1.1836,-1.1835,-1.1948,-1.1952,-1.1957,-1.1992,0,0,-1.1972,-1.1974,0,0,0,0,0,0,0,0,-1.1577,-1.1589,-1.1702,-1.1707,-1.1713,-1.1795,-1.1764,-1.1855,-1.1836,-1.179,-1.1836,-1.1835,-1.1898,-1.1907,-1.1929,-1.1997,-1.2002,-1.1972,-1.1975,-1.1977,-1.1979,0,0,0,0,0,0,0,-1.1571,-1.1584,-1.1714,-1.1704,-1.171,-1.1722,-1.1735,-1.1781,-1.1844,-1.1794,-1.1798,-1.1811,-1.1901,-1.1925,-1.1932,-1.2004,-1.1972,-1.1976,-1.1979,-1.1981,-1.2106,-1.2106,0,0,0,0,0,0,-1.1558,-1.1578,-1.171,-1.1717,-1.1643,-1.1725,-1.174,-1.1769,-1.1844,-1.1855,-1.1811,-1.1813,-1.1916,-1.1927,-1.1937,-1.1982,-1.1977,-1.1982,-1.1984,-1.2105,-1.2106,-1.2106,0,0,0,0,0,0,-1.1554,-1.1569,-1.1705,-1.1649,-1.1667,-1.1729,-1.1761,-1.1771,-1.1795,-1.1857,-1.1868,-1.1823,-1.1917,-1.193,-1.1978,-1.1987,-1.1984,-1.1988,-1.2105,-1.2105,-1.2106,-1.2074,0,0,0,0,0,0,-1.1548,-1.1567,-1.1581,-1.1649,-1.167,-1.1745,-1.1762,-1.1774,-1.1803,-1.1807,-1.1871,-1.1882,-1.1918,-1.197,-1.1983,-1.1994,-1.1992,-1.2104,-1.2105,-1.2106,-1.2074,-1.2073,-1.2072,0,0,0,0,0,-1.1542,-1.1567,-1.1582,-1.1598,-1.1689,-1.1746,-1.1758,-1.18,-1.1804,-1.1818,-1.1858,-1.188,-1.1984,-1.1975,-1.1989,-1.2002,-1.2104,-1.2105,-1.2106,-1.2075,-1.2073,-1.2072,0,0,0,0,0,0,-1.1498,-1.1577,-1.1594,-1.1642,-1.1687,-1.1754,-1.1774,-1.1797,-1.1841,-1.1842,-1.1891,-1.1905,-1.1949,-1.198,-1.1968,-1.2039,-1.2046,-1.2049,-1.2017,-1.2017,-1.2015,-1.2007,-1.1996,0,0,0,0,0,-1.1494,-1.1534,-1.1601,-1.1636,-1.1658,-1.1712,-1.1738,-1.1767,-1.1815,-1.1834,-1.1877,-1.1922,-1.1965,-1.1993,-1.2035,-1.2079,-1.2094,-1.2094,-1.2093,-1.2092,-1.2095,-1.2121,-1.2122,-1.2109,-1.2109,-1.2109,0,0,-1.1486,-1.1534,-1.1556,-1.1629,-1.1667,-1.1707,-1.1728,-1.1769,-1.1799,-1.184,-1.1888,-1.1921,-1.1975,-1.2021,-1.2043,-1.2048,-1.2102,-1.2093,-1.2092,-1.2096,-1.2122,-1.2123,-1.2124,-1.211,-1.211,-1.211,0,0,-1.1492,-1.1533,-1.1568,-1.1606,-1.1663,-1.1699,-1.1707,-1.1771,-1.1796,-1.1845,-1.1877,-1.1912,-1.1985,-1.2023,-1.2051,-1.2071,-1.2093,-1.2084,-1.2079,-1.2103,-1.2104,-1.2105,-1.2113,-1.2115,-1.2086,-1.2086,-1.2086,0,-1.1475,-1.1538,-1.1582,-1.1622,-1.1653,-1.1693,-1.1728,-1.1762,-1.1831,-1.1851,-1.1856,-1.1949,-1.1987,-1.2043,-1.2048,-1.2069,-1.208,-1.2077,-1.21,-1.2102,-1.2104,-1.2111,-1.2114,-1.2085,-1.2085,-1.2085,-1.2085,0,-1.1513,-1.1556,-1.1577,-1.1643,-1.1677,-1.1714,-1.1763,-1.1792,-1.1817,-1.1852,-1.1901,-1.195,-1.2003,-1.2018,-1.2043,-1.2077,-1.2079,-1.2091,-1.2099,-1.2103,-1.2111,-1.2114,-1.2083,-1.2083,-1.2084,-1.2084,0,0,-1.1496,-1.1587,-1.1593,-1.1624,-1.1691,-1.1725,-1.1763,-1.1817,-1.184,-1.1886,-1.1919,-1.1981,-1.1993,-1.2025,-1.2054,-1.2075,-1.2089,-1.2085,-1.2087,-1.2085,-1.213,-1.2121,-1.2123,-1.2103,-1.2104,-1.2105,-1.2126,0,-1.1511,-1.1584,-1.1625,-1.168,-1.172,-1.1758,-1.1792,-1.1836,-1.187,-1.1908,-1.1945,-1.1988,-1.2,-1.202,-1.2043,-1.2082,-1.2099,-1.2081,-1.2135,-1.2136,-1.2121,-1.2128,-1.2118,-1.2135,-1.2129,-1.213,-1.213,0,-1.1539,-1.1586,-1.1645,-1.1708,-1.1726,-1.1756,-1.1808,-1.1844,-1.1895,-1.1918,-1.1954,-1.1983,-1.2025,-1.2029,-1.2087,-1.2075,-1.2099,-1.2122,-1.2123,-1.213,-1.2134,-1.2135,-1.2142,-1.2144,-1.2136,-1.2135,-1.2135,0,-1.1521,-1.1598,-1.1643,-1.1668,-1.1743,-1.1763,-1.1794,-1.1845,-1.1875,-1.192,-1.194,-1.1989,-1.2016,-1.2053,-1.2095,-1.2094,-1.2149,-1.2156,-1.2169,-1.2168,-1.2179,-1.2178,-1.219,-1.2193,-1.2193,-1.2193,-1.2193,0,-1.1534,-1.1569,-1.1636,-1.1664,-1.1704,-1.1751,-1.1789,-1.1824,-1.1869,-1.1904,-1.1939,-1.1971,-1.2023,-1.2062,-1.2094,-1.2138,-1.2149,-1.2169,-1.2177,-1.2166,-1.2163,-1.2183,-1.2183,-1.2194,-1.2194,-1.2194,-1.2194,0,-1.1521,-1.1567,-1.1619,-1.1686,-1.1703,-1.173,-1.1786,-1.1814,-1.185,-1.1894,-1.1907,-1.1962,-1.2009,-1.2054,-1.2116,-1.2138,-1.2181,-1.2192,-1.2165,-1.2169,-1.2179,-1.2178,-1.2205,-1.2211,-1.221,-1.2209,-1.2209,0,-1.1527,-1.1555,-1.1624,-1.165,-1.1682,-1.1724,-1.1754,-1.1801,-1.1832,-1.1892,-1.1913,-1.1962,-1.2005,-1.2078,-1.2123,-1.2171,-1.2183,-1.2189,-1.2191,-1.2179,-1.2184,-1.2182,-1.2185,-1.2188,-1.2188,-1.2188,-1.2188,0,-1.1532,-1.1554,-1.1597,-1.1649,-1.1685,-1.1727,-1.1771,-1.179,-1.1845,-1.1877,-1.1926,-1.1959,-1.2023,-1.2072,-1.2126,-1.2157,-1.2182,-1.2187,-1.2193,-1.2182,-1.2165,-1.2175,-1.2162,-1.2186,-1.2186,-1.2186,-1.2186,-1.2187,-1.1529,-1.1556,-1.1609,-1.1656,-1.1694,-1.1734,-1.1764,-1.1804,-1.1846,-1.1903,-1.1927,-1.1977,-1.2027,-1.2101,-1.2132,-1.2171,-1.2177,-1.2185,-1.2187,-1.2188,-1.2186,-1.2158,-1.2181,-1.2181,-1.2181,-1.2181,-1.2181,0,-1.1537,-1.1573,-1.1616,-1.1677,-1.1713,-1.1734,-1.1783,-1.1813,-1.1856,-1.1901,-1.1942,-1.1998,-1.2046,-1.2095,-1.2145,-1.2167,-1.2179,-1.2179,-1.2178,-1.2185,-1.2178,-1.2168,-1.2168,-1.2168,-1.2168,-1.2168,-1.2168,-1.2168,-1.1545,-1.1592,-1.162,-1.1685,-1.1721,-1.1771,-1.1797,-1.1834,-1.1871,-1.1932,-1.1972,-1.2004,-1.2051,-1.2105,-1.2149,-1.2162,-1.2179,-1.2176,-1.2192,-1.2184,-1.2185,-1.2186,-1.2177,-1.2179,-1.2179,-1.2196,-1.2196,-1.2196]}]]